[[{"header":{"parameterUnit":"m.s-1","parameterCategory":1,"la1":30.2991,"la2":30.254,"lo1":-89.0895,"lo2":-89.0444,"dy":0.0017,"dx":0.0017,"nx":28,"ny":28,"refTime":"2024-07-19T21:00:00:Z","depth":0,"parameterNumber":2,"parameterNumberName":"U-component_of_WINDS"},"data":[0,0,0,0,0,0,0,0,0,0,0,0,0,0,0,0,0,0,0,0,0,0,0,0,0,0,0,0,0,0,0,0,0,0,0,0,0,0,0,0,0,0,0,0,0,0,0,0,0,0,0,0,0,0,0,0,0,0,2.232,2.232,0,2.2345,2.2345,2.2345,2.236,2.236,2.236,2.236,2.2386,2.2386,2.2387,0,0,0,0,0,0,0,0,0,0,0,0,0,2.2283,2.2284,2.2319,2.232,2.232,2.2345,2.2345,2.2346,2.236,2.236,2.236,2.236,2.2385,2.2386,2.2387,0,0,0,0,0,0,0,0,0,0,0,0,0,2.2303,2.2284,2.2319,2.233,2.2331,2.2345,2.2345,2.2346,2.236,2.236,2.236,2.236,2.2385,2.2386,2.2387,2.2391,0,0,2.239,2.239,0,0,0,0,0,0,0,0,2.2302,2.2304,2.2328,2.233,2.2331,2.2349,2.2342,2.2361,2.236,2.2349,2.236,2.236,2.2373,2.2375,2.238,2.2393,2.2394,2.239,2.2391,2.2391,2.2391,0,0,0,0,0,0,0,2.23,2.2303,2.233,2.2329,2.233,2.2334,2.2337,2.2345,2.236,2.235,2.2351,2.2354,2.2374,2.2379,2.2381,2.2394,2.239,2.2391,2.2391,2.2392,2.2411,2.2411,0,0,0,0,0,0,2.2297,2.2302,2.2329,2.233,2.2316,2.2334,2.2338,2.2343,2.236,2.2363,2.2354,2.2355,2.2377,2.2379,2.2382,2.2388,2.2391,2.2392,2.2392,2.2411,2.2411,2.2411,0,0,0,0,0,0,2.2296,2.2299,2.2328,2.2316,2.232,2.2335,2.2341,2.2344,2.2349,2.2363,2.2366,2.2356,2.2377,2.238,2.2389,2.2389,2.2392,2.2393,2.2411,2.2411,2.2411,2.24,0,0,0,0,0,0,2.2295,2.2299,2.2301,2.2316,2.2321,2.2335,2.2341,2.2344,2.235,2.2351,2.2366,2.2369,2.2378,2.2387,2.239,2.239,2.2394,2.2412,2.2411,2.2411,2.24,2.24,2.2399,0,0,0,0,0,2.2294,2.2297,2.2301,2.2304,2.2323,2.2335,2.2337,2.2348,2.235,2.2352,2.2362,2.2368,2.2388,2.2388,2.2391,2.2392,2.2412,2.2411,2.2411,2.2401,2.24,2.2399,0,0,0,0,0,0,2.2281,2.2299,2.2304,2.2312,2.2321,2.2337,2.234,2.2346,2.2355,2.2356,2.2368,2.2372,2.2379,2.2386,2.2385,2.2397,2.2401,2.2401,2.2392,2.2391,2.239,2.2388,2.2395,0,0,0,0,0,2.2279,2.2286,2.2302,2.2307,2.2312,2.2325,2.233,2.2337,2.2348,2.2352,2.2362,2.2372,2.2381,2.2386,2.2395,2.2402,2.2405,2.2404,2.2403,2.2402,2.2402,2.2406,2.2406,2.2411,2.2411,2.2411,0,0,2.2275,2.2286,2.229,2.2305,2.2313,2.2321,2.2328,2.2336,2.2342,2.2353,2.2362,2.237,2.2382,2.2389,2.2393,2.2395,2.2401,2.2402,2.2401,2.2402,2.2406,2.2405,2.2405,2.2411,2.2411,2.2411,0,0,2.2271,2.228,2.2286,2.2294,2.2307,2.2315,2.2317,2.2331,2.2337,2.2346,2.2355,2.2362,2.2376,2.2384,2.239,2.239,2.2396,2.2393,2.2388,2.2392,2.2391,2.2391,2.2391,2.2391,2.2393,2.2393,2.2393,0,2.2265,2.2276,2.2288,2.2295,2.2301,2.2312,2.2318,2.2325,2.234,2.2344,2.2347,2.2365,2.2374,2.2384,2.2384,2.2388,2.239,2.2391,2.2391,2.239,2.239,2.239,2.239,2.2392,2.2392,2.2392,2.2392,0,2.2267,2.2275,2.2278,2.2292,2.2299,2.2305,2.2318,2.2323,2.233,2.2338,2.2347,2.2358,2.2369,2.2372,2.2379,2.2383,2.2384,2.2388,2.2392,2.2389,2.2389,2.2389,2.2391,2.2392,2.2392,2.2392,0,0,2.2256,2.2277,2.2278,2.2284,2.2299,2.2305,2.2312,2.2323,2.2327,2.2337,2.2343,2.2355,2.236,2.2366,2.2374,2.2377,2.2376,2.2382,2.2382,2.238,2.2381,2.2377,2.2377,2.2381,2.2381,2.2381,2.238,0,2.2255,2.2267,2.2278,2.2287,2.2294,2.2305,2.2311,2.232,2.2328,2.2336,2.2345,2.2353,2.2358,2.2362,2.2366,2.2375,2.2376,2.2376,2.2386,2.2386,2.2382,2.2377,2.2373,2.2372,2.238,2.238,2.238,0,2.2255,2.2264,2.2274,2.2288,2.2291,2.2296,2.2307,2.2314,2.2325,2.2331,2.2339,2.2347,2.2354,2.2358,2.2368,2.2368,2.2372,2.2378,2.2378,2.2379,2.2383,2.2378,2.2372,2.2372,2.238,2.238,2.238,0,2.2245,2.226,2.2268,2.2273,2.229,2.2293,2.23,2.2312,2.2318,2.2327,2.2331,2.2341,2.2347,2.2355,2.2365,2.2367,2.2375,2.2379,2.2379,2.2379,2.238,2.238,2.2375,2.2384,2.2384,2.2384,2.2384,0,2.2242,2.2248,2.2264,2.2269,2.2275,2.2287,2.2293,2.2301,2.2311,2.2317,2.2327,2.2333,2.2347,2.2354,2.2362,2.237,2.2372,2.2377,2.2379,2.2376,2.2375,2.2379,2.2379,2.2384,2.2384,2.2384,2.2384,0,2.2233,2.2244,2.2253,2.2268,2.2272,2.2276,2.2289,2.2294,2.2302,2.231,2.2313,2.2326,2.2336,2.2347,2.236,2.2365,2.2372,2.2375,2.2368,2.2369,2.2369,2.2368,2.2366,2.2366,2.2374,2.2374,2.2374,0,2.223,2.2234,2.225,2.2255,2.2262,2.227,2.2276,2.2288,2.2294,2.2307,2.231,2.232,2.2329,2.2343,2.2354,2.2364,2.2367,2.2366,2.2369,2.2366,2.2367,2.2367,2.2367,2.2365,2.2364,2.2364,2.2364,0,2.2224,2.2229,2.2238,2.2248,2.2255,2.2264,2.2273,2.2277,2.2291,2.2297,2.2306,2.2313,2.2326,2.2336,2.2347,2.2355,2.2362,2.2363,2.2364,2.236,2.2356,2.2358,2.2365,2.2363,2.2363,2.2363,2.2363,2.2363,2.2218,2.2222,2.2234,2.2243,2.2251,2.2259,2.2265,2.2274,2.2282,2.2294,2.23,2.231,2.2321,2.2337,2.2344,2.2351,2.2354,2.2355,2.2355,2.2355,2.2354,2.2355,2.2353,2.2353,2.2353,2.2354,2.2354,0,2.2212,2.222,2.2228,2.2241,2.2248,2.2254,2.2265,2.227,2.2278,2.2288,2.2296,2.2307,2.2317,2.2329,2.2339,2.2343,2.2346,2.2345,2.2345,2.2346,2.2351,2.2349,2.2342,2.2342,2.2342,2.2342,2.2342,2.2342,2.221,2.2217,2.2224,2.2236,2.2244,2.2253,2.2259,2.2266,2.2274,2.2286,2.2294,2.2302,2.2312,2.2323,2.2332,2.2336,2.2339,2.2337,2.2341,2.2345,2.2346,2.2347,2.2345,2.2337,2.2337,2.2335,2.2335,2.2335]},{"header":{"parameterUnit":"m.s-1","parameterCategory":1,"la1":30.2991,"la2":30.254,"lo1":-89.0895,"lo2":-89.0444,"dy":0.0017,"dx":0.0017,"nx":28,"ny":28,"refTime":"2024-07-19T21:00:00:Z","depth":0,"parameterNumber":3,"parameterNumberName":"V-component_of_WINDS"},"data":[0,0,0,0,0,0,0,0,0,0,0,0,0,0,0,0,0,0,0,0,0,0,0,0,0,0,0,0,0,0,0,0,0,0,0,0,0,0,0,0,0,0,0,0,0,0,0,0,0,0,0,0,0,0,0,0,0,0,0.8073,0.8073,0,0.8052,0.8052,0.8052,0.8042,0.8042,0.8042,0.8042,0.8019,0.8018,0.8018,0,0,0,0,0,0,0,0,0,0,0,0,0,0.8102,0.8101,0.8073,0.8073,0.8073,0.8052,0.8052,0.8052,0.8042,0.8042,0.8042,0.8042,0.8019,0.8019,0.8018,0,0,0,0,0,0,0,0,0,0,0,0,0,0.8086,0.8101,0.8073,0.8065,0.8064,0.8052,0.8052,0.8052,0.8042,0.8042,0.8042,0.8042,0.8019,0.8019,0.8018,0.8012,0,0,0.8015,0.8015,0,0,0,0,0,0,0,0,0.8087,0.8085,0.8067,0.8066,0.8065,0.805,0.8054,0.8038,0.8042,0.805,0.8042,0.8042,0.8029,0.8027,0.8023,0.8011,0.801,0.8015,0.8014,0.8014,0.8014,0,0,0,0,0,0,0,0.8088,0.8086,0.8065,0.8066,0.8065,0.8062,0.806,0.8051,0.804,0.8049,0.8049,0.8046,0.8029,0.8024,0.8023,0.801,0.8015,0.8014,0.8014,0.8013,0.799,0.799,0,0,0,0,0,0,0.8091,0.8087,0.8066,0.8064,0.8076,0.8061,0.8059,0.8054,0.804,0.8038,0.8046,0.8046,0.8026,0.8024,0.8022,0.8013,0.8014,0.8013,0.8013,0.799,0.799,0.7989,0,0,0,0,0,0,0.8091,0.8089,0.8066,0.8075,0.8072,0.8061,0.8056,0.8054,0.805,0.8038,0.8035,0.8044,0.8026,0.8023,0.8014,0.8013,0.8013,0.8012,0.799,0.799,0.799,0.7997,0,0,0,0,0,0,0.8092,0.8089,0.8088,0.8075,0.8072,0.806,0.8056,0.8054,0.8048,0.8048,0.8035,0.8033,0.8026,0.8016,0.8013,0.8011,0.8011,0.799,0.799,0.799,0.7997,0.7997,0.7997,0,0,0,0,0,0.8093,0.809,0.8087,0.8085,0.807,0.806,0.8058,0.805,0.8048,0.8046,0.8038,0.8033,0.8013,0.8015,0.8012,0.801,0.799,0.799,0.799,0.7997,0.7997,0.7997,0,0,0,0,0,0,0.8103,0.8089,0.8085,0.8079,0.807,0.8058,0.8055,0.805,0.8042,0.8042,0.8032,0.8029,0.802,0.8014,0.8016,0.8003,0.8001,0.8,0.8007,0.8007,0.8008,0.8009,0.801,0,0,0,0,0,0.8104,0.8098,0.8086,0.8081,0.8077,0.8067,0.8062,0.8057,0.8048,0.8044,0.8035,0.8026,0.8017,0.8012,0.8004,0.7996,0.7992,0.7992,0.7993,0.7993,0.7992,0.7986,0.7986,0.7989,0.7989,0.7989,0,0,0.8107,0.8098,0.8095,0.8083,0.8076,0.8068,0.8064,0.8057,0.8051,0.8043,0.8034,0.8027,0.8016,0.8007,0.8002,0.8001,0.7991,0.7993,0.7993,0.7992,0.7986,0.7986,0.7985,0.7989,0.7989,0.7989,0,0,0.8108,0.8101,0.8096,0.8089,0.8078,0.8071,0.807,0.8058,0.8053,0.8044,0.8037,0.8029,0.8015,0.8007,0.8001,0.7998,0.7993,0.7995,0.7997,0.7991,0.799,0.799,0.7988,0.7987,0.7995,0.7995,0.7995,0,0.8112,0.8102,0.8094,0.8087,0.8081,0.8073,0.8067,0.806,0.8047,0.8043,0.8042,0.8023,0.8015,0.8004,0.8003,0.7998,0.7996,0.7997,0.7991,0.7991,0.799,0.7988,0.7987,0.7995,0.7995,0.7995,0.7995,0,0.8108,0.81,0.8097,0.8085,0.8079,0.8073,0.8062,0.8057,0.8051,0.8044,0.8034,0.8024,0.8013,0.801,0.8004,0.7997,0.7996,0.7993,0.7991,0.7991,0.7988,0.7987,0.7996,0.7995,0.7995,0.7995,0,0,0.8115,0.8097,0.8096,0.809,0.8077,0.8071,0.8063,0.8053,0.8048,0.8039,0.8031,0.8019,0.8016,0.8009,0.8002,0.7997,0.7994,0.7995,0.7994,0.7994,0.7983,0.7985,0.7985,0.799,0.799,0.799,0.7984,0,0.8114,0.8101,0.8092,0.8082,0.8075,0.8066,0.806,0.805,0.8043,0.8035,0.8027,0.8017,0.8014,0.801,0.8005,0.7995,0.7991,0.7996,0.7982,0.7982,0.7985,0.7983,0.7986,0.7981,0.7983,0.7983,0.7983,0,0.8111,0.8102,0.8091,0.8078,0.8075,0.8069,0.8058,0.805,0.8039,0.8034,0.8026,0.8019,0.8009,0.8008,0.7994,0.7997,0.7991,0.7985,0.7985,0.7983,0.7982,0.7981,0.7979,0.7978,0.7981,0.7981,0.7982,0,0.8116,0.8101,0.8093,0.8088,0.8073,0.8068,0.8062,0.8051,0.8044,0.8034,0.8029,0.8018,0.8012,0.8002,0.7992,0.7992,0.7979,0.7977,0.7973,0.7973,0.7971,0.7971,0.7967,0.7967,0.7967,0.7967,0.7968,0,0.8116,0.8109,0.8095,0.809,0.8082,0.8072,0.8064,0.8056,0.8046,0.8038,0.803,0.8023,0.801,0.8,0.7992,0.7981,0.7978,0.7973,0.7971,0.7974,0.7974,0.7969,0.7969,0.7967,0.7967,0.7967,0.7967,0,0.812,0.8111,0.8101,0.8087,0.8083,0.8078,0.8065,0.8059,0.8051,0.8041,0.8038,0.8025,0.8013,0.8002,0.7986,0.7981,0.7969,0.7967,0.7973,0.7972,0.7969,0.7969,0.7962,0.796,0.7962,0.7962,0.7962,0,0.8121,0.8115,0.8101,0.8095,0.8089,0.808,0.8073,0.8062,0.8055,0.8041,0.8037,0.8024,0.8014,0.7996,0.7984,0.7972,0.7968,0.7967,0.7967,0.7969,0.7967,0.7968,0.7967,0.7967,0.7967,0.7967,0.7967,0,0.8122,0.8117,0.8108,0.8097,0.8089,0.808,0.807,0.8066,0.8053,0.8045,0.8034,0.8026,0.8009,0.7997,0.7983,0.7975,0.7968,0.7967,0.7965,0.7968,0.7972,0.7969,0.7974,0.7967,0.7967,0.7967,0.7967,0.7967,0.8124,0.8118,0.8107,0.8097,0.8088,0.8079,0.8072,0.8063,0.8053,0.804,0.8034,0.8021,0.8008,0.7989,0.7981,0.797,0.7969,0.7967,0.7966,0.7965,0.7966,0.7974,0.7968,0.7967,0.7967,0.7967,0.7967,0,0.8124,0.8116,0.8107,0.8093,0.8085,0.808,0.8069,0.8062,0.8051,0.804,0.803,0.8016,0.8003,0.799,0.7976,0.797,0.7967,0.7967,0.7967,0.7965,0.7968,0.7971,0.797,0.797,0.797,0.797,0.797,0.797,0.8123,0.8113,0.8107,0.8092,0.8084,0.8072,0.8066,0.8057,0.8048,0.8033,0.8022,0.8014,0.8001,0.7987,0.7974,0.7971,0.7966,0.7967,0.7962,0.7965,0.7965,0.7965,0.7967,0.7966,0.7966,0.796,0.796,0.796]}]]